Date String (YYYY-MM-DD hh:mm:ss) UTC,Instrument flags,Ambient pressure (hPa),Sample flow (lpm),Bypass flow (lpm),Sample temperature (°C),Ambient temperature (°C),ASC tube jacket temperature (°C),LED temperature (°C),Box temperature (°C),Sample RH (%),Span deviation,Mass concentration (μg/m³),Mass concentration (μg/m³),Mass concentration (μg/m³)
DateTimeUTC,F1_M11,P_M11,Q1_M11,Q2_M11,T1_M11,T2_M11,T3_M11,T4_M11,T5_M11,U1_M11,ZSPAN_M11,X0_M11,X2_M11,X1_M11
2022-10-16 05:00:00,,0833.7,5.01,0.00,30.2,28.8,00.0,39.0,32.0,16.3,0000.0,0008.21,0004.45,0003.96
2022-10-16 05:01:00,,0833.6,4.99,0.00,30.2,28.8,00.0,39.0,32.0,16.3,0000.0,0008.70,0004.44,0003.95
2022-10-16 05:02:00,,0833.7,4.99,0.00,30.2,28.8,00.0,39.0,32.0,16.3,0000.0,0009.63,0004.45,0003.96
2022-10-16 05:03:00,,0833.6,5.01,0.00,30.2,28.8,00.0,39.0,32.0,16.3,0000.0,0009.71,0004.48,0003.97
2022-10-16 05:04:00,,0833.6,5.00,0.00,30.2,28.8,00.0,39.0,32.0,16.3,0000.0,0009.80,0004.53,0003.98
2022-10-16 05:05:00,,0833.6,5.01,0.00,30.2,28.8,00.0,39.0,32.0,16.3,0000.0,0009.79,0004.55,0003.99
2022-10-16 05:06:00,,0833.6,4.99,0.00,30.2,28.8,00.0,39.0,32.0,16.3,0000.0,0009.79,0004.53,0003.98
2022-10-16 05:07:00,,0833.6,4.99,0.00,30.2,28.8,00.0,39.0,32.1,16.3,0000.0,0009.96,0004.50,0003.98
2022-10-16 05:08:00,,0833.6,4.99,0.00,30.3,28.9,00.0,39.0,32.1,16.2,0000.0,0010.40,0004.55,0003.98
2022-10-16 05:09:00,,0833.6,5.00,0.00,30.3,28.9,00.0,39.0,32.1,16.2,0000.0,0010.40,0004.55,0003.98
2022-10-16 05:10:00,,0833.6,5.00,0.00,30.3,28.9,00.0,39.0,32.1,16.1,0000.0,0010.49,0004.57,0003.97
2022-10-16 05:11:00,,0833.6,5.01,0.00,30.3,28.9,00.0,39.1,32.1,16.1,0000.0,0010.16,0004.56,0003.97
2022-10-16 05:12:00,,0833.6,4.99,0.00,30.3,28.9,00.0,39.1,32.1,16.1,0000.0,0009.63,0004.54,0003.98
2022-10-16 05:13:00,,0833.6,5.01,0.00,30.3,28.9,00.0,39.1,32.0,16.0,0000.0,0009.45,0004.51,0003.98
2022-10-16 05:14:00,,0833.6,5.01,0.00,30.3,28.9,00.0,39.1,32.1,16.1,0000.0,0009.92,0004.51,0003.96
2022-10-16 05:15:00,,0833.6,5.00,0.00,30.3,28.9,00.0,39.1,32.1,16.1,0000.0,0009.84,0004.46,0003.96
2022-10-16 05:16:00,,0833.6,5.00,0.00,30.3,28.9,00.0,39.1,32.1,16.1,0000.0,0010.04,0004.47,0003.96
2022-10-16 05:17:00,,0833.6,5.00,0.00,30.3,28.9,00.0,39.1,32.1,16.1,0000.0,0010.24,0004.46,0003.97
2022-10-16 05:18:00,,0833.7,5.00,0.00,30.3,28.9,00.0,39.1,32.1,16.1,0000.0,0010.11,0004.49,0003.97
2022-10-16 05:19:00,,0833.7,4.99,0.00,30.3,28.9,00.0,39.1,32.1,16.1,0000.0,0009.75,0004.45,0003.96
2022-10-16 05:20:00,,0833.6,5.00,0.00,30.3,28.9,00.0,39.1,32.1,16.2,0000.0,0009.84,0004.45,0003.95
2022-10-16 05:21:00,,0833.6,5.02,0.00,30.3,28.9,00.0,39.1,32.1,16.3,0000.0,0009.88,0004.49,0003.96
2022-10-16 05:22:00,,0833.6,5.01,0.00,30.3,28.9,00.0,39.1,32.1,16.3,0000.0,0009.95,0004.53,0003.97
2022-10-16 05:23:00,,0833.6,5.00,0.00,30.3,28.9,00.0,39.1,32.1,16.4,0000.0,0009.83,0004.53,0003.96
2022-10-16 05:24:00,,0833.6,5.00,0.00,30.3,28.9,00.0,39.1,32.1,16.4,0000.0,0009.18,0004.54,0003.97
2022-10-16 05:25:00,,0833.6,5.00,0.00,30.3,28.9,00.0,39.2,32.1,16.4,0000.0,0008.64,0004.55,0003.97
2022-10-16 05:26:00,,0833.6,5.00,0.00,30.3,28.9,00.0,39.2,32.1,16.3,0000.0,0008.80,0004.63,0003.98
2022-10-16 05:27:00,,0833.6,5.00,0.00,30.3,28.9,00.0,39.2,32.1,16.3,0000.0,0008.71,0004.64,0003.98
2022-10-16 05:28:00,,0833.6,4.99,0.00,30.3,28.9,00.0,39.2,32.1,16.3,0000.0,0008.67,0004.66,0003.97
2022-10-16 05:29:00,,0833.6,5.01,0.00,30.4,28.9,00.0,39.2,32.1,16.3,0000.0,0008.80,0004.66,0003.97
2022-10-16 05:30:00,,0833.6,5.01,0.00,30.4,28.9,00.0,39.2,32.1,16.3,0000.0,0008.67,0004.63,0003.97
2022-10-16 05:31:00,,0833.6,5.00,0.00,30.3,28.9,00.0,39.2,32.1,16.2,0000.0,0008.51,0004.60,0003.97
2022-10-16 05:32:00,,0833.6,5.01,0.00,30.3,28.9,00.0,39.2,32.1,16.2,0000.0,0008.70,0004.54,0003.95
2022-10-16 05:33:00,,0833.6,4.99,0.00,30.4,28.9,00.0,39.2,32.1,16.2,0000.0,0008.95,0004.51,0003.93
2022-10-16 05:34:00,,0833.6,4.99,0.00,30.3,28.9,00.0,39.2,32.1,16.2,0000.0,0009.78,0004.52,0003.91
2022-10-16 05:35:00,,0833.6,5.00,0.00,30.3,28.9,00.0,39.2,32.1,16.3,0000.0,0009.64,0004.50,0003.91
2022-10-16 05:36:00,,0833.6,5.00,0.00,30.4,28.9,00.0,39.2,32.1,16.3,0000.0,0009.64,0004.51,0003.90
2022-10-16 05:37:00,,0833.6,5.01,0.00,30.4,28.9,00.0,39.2,32.2,16.3,0000.0,0009.66,0004.47,0003.88
2022-10-16 05:38:00,,0833.6,5.00,0.00,30.4,28.9,00.0,39.2,32.1,16.2,0000.0,0009.72,0004.42,0003.88
2022-10-16 05:39:00,,0833.7,4.99,0.00,30.4,28.9,00.0,39.2,32.1,16.2,0000.0,0009.56,0004.41,0003.87
2022-10-16 05:40:00,,0833.6,4.99,0.00,30.4,28.9,00.0,39.2,32.1,16.2,0000.0,0009.27,0004.40,0003.86
2022-10-16 05:41:00,,0833.6,4.99,0.00,30.4,28.9,00.0,39.2,32.1,16.2,0000.0,0009.34,0004.42,0003.86
2022-10-16 05:42:00,,0833.6,5.00,0.00,30.4,28.9,00.0,39.2,32.1,16.1,0000.0,0009.38,0004.43,0003.86
2022-10-16 05:43:00,,0833.6,5.01,0.00,30.4,28.9,00.0,39.2,32.2,16.1,0000.0,0009.38,0004.44,0003.86
2022-10-16 05:44:00,,0833.6,5.01,0.00,30.4,28.9,00.0,39.2,32.2,16.1,0000.0,0009.58,0004.45,0003.86
2022-10-16 05:45:00,,0833.6,5.00,0.00,30.4,28.9,00.0,39.2,32.1,16.1,0000.0,0008.77,0004.44,0003.87
2022-10-16 05:46:00,,0833.6,4.99,0.00,30.4,28.9,00.0,39.2,32.2,16.1,0000.0,0008.76,0004.44,0003.87
2022-10-16 05:47:00,,0833.6,4.99,0.00,30.4,28.9,00.0,39.2,32.2,16.1,0000.0,0008.74,0004.41,0003.86
2022-10-16 05:48:00,,0833.6,5.02,0.00,30.4,28.9,00.0,39.2,32.2,16.0,0000.0,0009.03,0004.40,0003.86
2022-10-16 05:49:00,,0833.6,5.00,0.00,30.4,28.9,00.0,39.2,32.2,16.0,0000.0,0008.98,0004.39,0003.86
2022-10-16 05:50:00,,0833.6,4.99,0.00,30.4,28.9,00.0,39.2,32.2,16.0,0000.0,0008.95,0004.39,0003.86
2022-10-16 05:51:00,,0833.6,5.00,0.00,30.4,28.8,00.0,39.2,32.2,16.0,0000.0,0009.45,0004.39,0003.86
2022-10-16 05:52:00,,0833.6,5.00,0.00,30.4,28.8,00.0,39.2,32.2,16.0,0000.0,0010.18,0004.38,0003.86
2022-10-16 05:53:00,,0833.6,5.01,0.00,30.4,28.8,00.0,39.2,32.1,16.0,0000.0,0010.44,0004.37,0003.85
2022-10-16 05:54:00,,0833.6,4.99,0.00,30.4,28.8,00.0,39.2,32.1,16.0,0000.0,0010.65,0004.39,0003.85
2022-10-16 05:55:00,,0833.6,4.99,0.00,30.4,28.8,00.0,39.2,32.1,16.0,0000.0,0010.42,0004.38,0003.86
2022-10-16 05:56:00,,0833.5,5.01,0.00,30.4,28.8,00.0,39.2,32.1,16.1,0000.0,0010.82,0004.40,0003.86
2022-10-16 05:57:00,,0833.6,5.01,0.00,30.3,28.8,00.0,39.2,32.1,16.1,0000.0,0011.44,0004.42,0003.85
2022-10-16 05:58:00,,0833.6,5.00,0.00,30.3,28.8,00.0,39.2,32.1,16.0,0000.0,0011.55,0004.45,0003.85
2022-10-16 05:59:00,,0833.5,5.00,0.00,30.3,28.8,00.0,39.2,32.1,16.1,0000.0,0011.46,0004.42,0003.86
